Weather History for PHLI - December, 2012

Change the Weather History Date:

Wednesday, December 19, 2012

  Actual Average Record
Temperature  
Mean Temperature 74 °F 73 °F  
Max Temperature 77 °F 79 °F 84 °F (1980)
Min Temperature 71 °F 67 °F 59 °F (1954)
Degree Days  
Heating Degree Days 0 0  
Month to date heating degree days 0 0  
Since 1 July heating degree days 0 0  
Cooling Degree Days 9 8  
Month to date cooling degree days 187 163  
Year to date cooling degree days 4028 3854  
Growing Degree Days 24 (Base 50)    
Moisture  
Dew Point 67 °F    
Average Humidity 78    
Maximum Humidity 87    
Minimum Humidity 69    
Precipitation  
Precipitation 0.08 in 0.19 in 3.48 in (1955)
Month to date precipitation 4.18 3.18  
Year to date precipitation 40.99 35.03  
Snow  
Snow 0.00 in - - ()
Month to date snowfall 0.0  
Since 1 July snowfall 0.0  
Snow Depth 0.00 in    
Sea Level Pressure  
Sea Level Pressure 30.07 in    
Wind  
Wind Speed 19 mph (ENE)    
Max Wind Speed 25 mph    
Max Gust Speed 31 mph    
Visibility 10 miles    
Events Rain    
T = Trace of Precipitation, MM = Missing Value Source: NWS Daily Summary

Daily Weather History Graph

Daily Weather History Graph

Search for Another Location

Airport or City:

Trip Planner

Search our weather history database for the weather conditions in past years. The results will help you decide how hot, cold, wet, or windy it might be!

Date:

Astronomy

Dec. 19, 2012 Rise Set
Actual Time 7:11 AM HST 5:58 PM HST
Civil Twilight 6:46 AM HST 6:23 PM HST
Nautical Twilight 6:18 AM HST 6:50 PM HST
Astronomical Twilight 5:51 AM HST 7:18 PM HST
Moon 12:13 PM HST (12/19) No Moon Set
Length of Visible Light 11h 36m
Length of Day
10h 47m
Waxing Crescent, 47% of the Moon is Illuminated
Dec 19
Waxing Crescent
Dec 19
First Quarter
Dec 28
Full
Jan 4
Last Quarter
Jan 11
New

Hourly Weather History & Observations

Time (HST) Temp. Dew Point Humidity Pressure Visibility Wind Dir Wind Speed Gust Speed Precip Events Conditions
12:30 AM 73.4 °F 66.2 °F 78% 30.11 in 10.0 mi ENE 16.1 mph - N/A   Overcast
12:53 AM 73.0 °F 66.9 °F 81% 30.10 in 10.0 mi ENE 18.4 mph 25.3 mph N/A   Overcast
1:41 AM 73.4 °F 66.2 °F 78% 30.10 in 10.0 mi ENE 17.3 mph - N/A   Mostly Cloudy
1:53 AM 73.0 °F 66.0 °F 79% 30.09 in 10.0 mi ENE 16.1 mph 24.2 mph N/A   Mostly Cloudy
2:09 AM 73.4 °F 66.2 °F 78% 30.09 in 10.0 mi ENE 16.1 mph - N/A   Mostly Cloudy
2:27 AM 73.4 °F 64.4 °F 73% 30.08 in 10.0 mi ENE 16.1 mph - N/A   Scattered Clouds
2:39 AM 73.4 °F 64.4 °F 73% 30.08 in 10.0 mi ENE 13.8 mph - N/A   Mostly Cloudy
2:51 AM 73.4 °F 64.4 °F 73% 30.08 in 10.0 mi ENE 16.1 mph - N/A   Mostly Cloudy
2:53 AM 73.0 °F 64.9 °F 76% 30.07 in 10.0 mi ENE 17.3 mph - N/A   Mostly Cloudy
3:04 AM 73.4 °F 64.4 °F 73% 30.07 in 10.0 mi ENE 16.1 mph - N/A   Mostly Cloudy
3:53 AM 73.0 °F 66.0 °F 79% 30.05 in 10.0 mi ENE 16.1 mph - N/A   Overcast
4:53 AM 73.0 °F 66.9 °F 81% 30.05 in 10.0 mi ENE 16.1 mph - N/A   Mostly Cloudy
5:53 AM 73.0 °F 66.9 °F 81% 30.06 in 10.0 mi ENE 17.3 mph - 0.02 in   Overcast
6:23 AM 73.4 °F 66.2 °F 78% 30.07 in 10.0 mi ENE 18.4 mph - N/A   Mostly Cloudy
6:53 AM 73.0 °F 66.9 °F 81% 30.07 in 10.0 mi ENE 19.6 mph 25.3 mph 0.01 in Rain Light Rain
7:29 AM 73.4 °F 66.2 °F 78% 30.10 in 10.0 mi ENE 19.6 mph - 0.00 in   Mostly Cloudy
7:38 AM 73.4 °F 66.2 °F 78% 30.10 in 10.0 mi ENE 19.6 mph - 0.00 in   Mostly Cloudy
7:53 AM 73.0 °F 66.9 °F 81% 30.10 in 10.0 mi ENE 20.7 mph - 0.00 in   Mostly Cloudy
8:53 AM 73.9 °F 68.0 °F 82% 30.10 in 10.0 mi ENE 18.4 mph - N/A   Mostly Cloudy
9:53 AM 73.9 °F 69.1 °F 85% 30.11 in 10.0 mi ENE 18.4 mph - 0.01 in   Mostly Cloudy
10:53 AM 75.0 °F 68.0 °F 79% 30.11 in 10.0 mi ENE 18.4 mph - 0.00 in   Mostly Cloudy
11:09 AM 73.4 °F 68.0 °F 83% 30.11 in 7.0 mi ENE 16.1 mph 28.8 mph 0.03 in Rain Light Rain
11:12 AM 73.4 °F 69.8 °F 88% 30.11 in 10.0 mi ENE 16.1 mph - 0.03 in Rain Light Rain
11:31 AM 75.2 °F 69.8 °F 83% 30.11 in 10.0 mi ENE 15.0 mph - 0.04 in   Overcast
11:40 AM 75.2 °F 69.8 °F 83% 30.10 in 10.0 mi ENE 19.6 mph - 0.04 in   Overcast
11:53 AM 73.9 °F 68.0 °F 82% 30.09 in 9.0 mi ENE 16.1 mph 26.5 mph 0.04 in   Overcast
12:00 PM 75.2 °F 68.0 °F 78% 30.09 in 10.0 mi ENE 17.3 mph - N/A   Overcast
12:42 PM 77.0 °F 68.0 °F 74% 30.06 in 10.0 mi ENE 18.4 mph - N/A   Overcast
12:53 PM 77.0 °F 66.9 °F 71% 30.05 in 10.0 mi NE 18.4 mph - N/A   Overcast
1:22 PM 77.0 °F 68.0 °F 74% 30.04 in 10.0 mi ENE 20.7 mph - 0.00 in   Scattered Clouds
1:53 PM 75.9 °F 66.9 °F 74% 30.02 in 10.0 mi ENE 21.9 mph 27.6 mph 0.00 in   Mostly Cloudy
2:06 PM 77.0 °F 68.0 °F 74% 30.02 in 10.0 mi ENE 19.6 mph - N/A   Mostly Cloudy
2:39 PM 77.0 °F 66.2 °F 69% 30.02 in 10.0 mi ENE 19.6 mph - N/A   Overcast
2:53 PM 75.9 °F 66.9 °F 74% 30.01 in 10.0 mi ENE 19.6 mph - N/A   Overcast
3:14 PM 77.0 °F 66.2 °F 69% 30.02 in 10.0 mi ENE 17.3 mph 27.6 mph N/A   Overcast
3:21 PM 77.0 °F 66.2 °F 69% 30.02 in 10.0 mi ENE 21.9 mph 27.6 mph N/A   Overcast
3:53 PM 75.9 °F 66.9 °F 74% 30.01 in 10.0 mi ENE 18.4 mph - N/A   Overcast
4:24 PM 75.2 °F 66.2 °F 73% 30.02 in 10.0 mi ENE 21.9 mph 28.8 mph N/A   Mostly Cloudy
4:53 PM 73.9 °F 66.0 °F 76% 30.02 in 10.0 mi ENE 21.9 mph 27.6 mph N/A   Mostly Cloudy
5:53 PM 73.9 °F 64.9 °F 73% 30.03 in 10.0 mi ENE 21.9 mph 27.6 mph N/A   Scattered Clouds
6:53 PM 73.9 °F 64.9 °F 73% 30.04 in 10.0 mi ENE 19.6 mph 29.9 mph N/A   Scattered Clouds
7:02 PM 73.4 °F 64.4 °F 73% 30.05 in 10.0 mi ENE 24.2 mph 29.9 mph N/A   Mostly Cloudy
7:53 PM 73.9 °F 64.9 °F 73% 30.07 in 10.0 mi NE 21.9 mph - N/A   Overcast
8:53 PM 73.0 °F 66.9 °F 81% 30.09 in 7.0 mi ENE 21.9 mph 27.6 mph 0.00 in Rain Light Rain
9:30 PM 73.4 °F 66.2 °F 78% 30.09 in 10.0 mi ENE 20.7 mph - 0.00 in   Overcast
9:53 PM 73.0 °F 66.0 °F 79% 30.10 in 10.0 mi ENE 20.7 mph 26.5 mph 0.00 in   Overcast
10:32 PM 71.6 °F 66.2 °F 83% 30.10 in 9.0 mi ENE 17.3 mph - 0.00 in Rain Light Rain
10:53 PM 72.0 °F 66.9 °F 84% 30.09 in 10.0 mi ENE 18.4 mph 28.8 mph 0.00 in   Overcast
11:53 PM 72.0 °F 66.9 °F 84% 30.09 in 10.0 mi ENE 18.4 mph 24.2 mph N/A   Overcast